This is the latest recevied weather packets stored in our database for station/object WX4LTG. If no packets are shown the sender has not sent any weather packets the latest 10 day(s).
| Time | Temp. | Humidity | Pressure | Rain* | Wind** | Luminosity | Snow |
|---|---|---|---|---|---|---|---|
| 1777060581 | 28.89° C | 15% | 1009.3 hPa | 0 mm | - | 743 W/m² | - |
| 1777060278 | 28.33° C | 15% | 1009.5 hPa | 0 mm | - | 744 W/m² | - |
| 1777059974 | 28.89° C | 15% | 1009.9 hPa | 0 mm | - | 748 W/m² | - |
| 1777059669 | 28.89° C | 15% | 1009.8 hPa | 0 mm | - | 747 W/m² | - |
| 1777059367 | 28.89° C | 15% | 1010 hPa | 0 mm | - | 746 W/m² | - |
| 1777059063 | 28.89° C | 15% | 1010.2 hPa | 0 mm | - | 748 W/m² | - |
| 1777058762 | 28.89° C | 15% | 1010.1 hPa | 0 mm | - | 750 W/m² | - |
| 1777058459 | 28.89° C | 15% | 1010.4 hPa | 0 mm | - | 752 W/m² | - |
| 1777058156 | 28.89° C | 15% | 1010.3 hPa | 0 mm | - | 750 W/m² | - |
| 1777057856 | 28.89° C | 16% | 1010.5 hPa | 0 mm | - | 749 W/m² | - |
| 1777057551 | 28.89° C | 16% | 1010.4 hPa | 0 mm | - | 732 W/m² | - |
| 1777057248 | 28.33° C | 16% | 1010.6 hPa | 0 mm | - | 744 W/m² | - |
| 1777056944 | 28.33° C | 16% | 1010.7 hPa | 0 mm | - | 733 W/m² | - |
| 1777056642 | 27.78° C | 18% | 1010.7 hPa | 0 mm | - | 748 W/m² | - |
| 1777056338 | 28.33° C | 16% | 1011 hPa | 0 mm | - | 738 W/m² | - |
| 1777056035 | 28.89° C | 16% | 1010.7 hPa | 0 mm | - | 697 W/m² | - |
| 1777055732 | 28.33° C | 16% | 1010.8 hPa | 0 mm | - | 689 W/m² | - |
| 1777055428 | 27.78° C | 16% | 1010.8 hPa | 0 mm | - | 732 W/m² | - |
| 1777055127 | 27.78° C | 16% | 1011.1 hPa | 0 mm | - | 640 W/m² | - |
| 1777054822 | 28.33° C | 16% | 1011.1 hPa | 0 mm | - | 573 W/m² | - |
| 1777054519 | 27.78° C | 17% | 1011.2 hPa | 0 mm | - | 680 W/m² | - |
| 1777054216 | 28.33° C | 17% | 1011.2 hPa | 0 mm | - | 658 W/m² | - |
| 1777053914 | 28.33° C | 17% | 1011.3 hPa | 0 mm | - | 654 W/m² | - |
| 1777053609 | 27.22° C | 18% | 1011.5 hPa | 0 mm | - | 611 W/m² | - |
| 1777053303 | 27.22° C | 19% | 1011.6 hPa | 0 mm | - | 702 W/m² | - |
* Rain latest hour (hover to see other rain measurements)
** Current wind speed in m/s (hover to see current wind gust speed)